www.pogodaiklimat.ru

Погода и климат >> Архив погоды >> Россия >> Ставропольский край >> Зеленокумск


ПОГОДА в Зеленокумске

  • Прогноз погоды в Зеленокумске
  • Монитор погоды в Зеленокумске

АРХИВ ПОГОДЫ в Зеленокумске

Время (UTC), дата Ветер
(напр.,м/с)
 
Видим.   Явления Облачность Т
(С)
Тd
(С)
f
(%)
Тe
(С)
Тes
(С)
Комфортность P
(гПа)
Po
(гПа)
Тmin
(С)
Tmax
(С)
R
(мм)
R24
(мм)
S
(см)
00 12.08 Ю 1 20 км ясно +13.7 +9.2 74 +14 +14 1017.6 999.9
03 12.08 Ю 1 20 км 3/0 2000 м
[Ac lent]
+13.3 +9.8 79 +14 +14 1018.3 1000.6 +12.7
06 12.08 Ю 1 20 км ясно +24.4 +9.4 39 +25 +36 комфорт 1017.3 1000.3
09 12.08 З 2 20 км ясно +29.6 +7.7 25 +29 +45 жарко 1015.5 998.7
12 12.08 С 2 20 км 3/3 600 м
[Cu hum]
+31.9 +7.2 21 +30 +37 жарко 1014.3 997.7
15 12.08 СЗ 2 20 км 8/3 600 м
[Sc diur, vesp Ac cuf]
+30.3 +9.0 27 +30 +30 жарко 1014.4 997.7 +32.3
18 12.08 штиль 0 20 км 8/0
[Ac lent]
+22.4 +10.2 46 +24 +24 комфорт 1016.4 999.3
21 12.08 штиль 0 20 км 8/0
[Ac lent]
+19.1 +9.6 54 +20 +20 1017.6 1000.2
00 13.08 штиль 0 20 км 4/0
[Ac lent]
+16.3 +9.0 62 +16 +16 1018.2 1000.6
03 13.08 штиль 0 20 км 8/3 600 м
[Sc Ac lent Ci fib]
+14.6 +9.0 69 +14 +15 1019.0 1001.4 +14.5
06 13.08 СВ 1 20 км 3/0 2000 м
[Ac lent Ci fib]
+24.3 +8.6 37 +25 +34 комфорт 1018.8 1001.7
09 13.08 СВ 1 20 км ясно +29.2 +9.0 28 +29 +48 жарко 1017.3 1000.5
12 13.08 СВ 2 20 км ясно +31.0 +8.4 25 +30 +40 жарко 1015.7 999.0
15 13.08 СВ 2 20 км ясно +29.5 +6.2 23 +28 +29 жарко 1015.3 998.6 +31.4
18 13.08 штиль 0 20 км ясно +19.8 +5.4 39 +20 +20 1017.3 999.9
21 13.08 штиль 0 20 км ясно +14.1 +2.9 47 +14 +14 1017.2 999.6
00 14.08 штиль 0 20 км ясно +13.2 +4.5 56 +13 +13 1017.3 999.6
03 14.08 штиль 0 20 км ясно +11.6 +3.9 59 +11 +12 1018.0 1000.2 +10.6
06 14.08 В 2 20 км ясно +27.5 +7.6 28 +27 +36 жарко 1016.6 999.7
09 14.08 В 3 20 км ясно +31.1 +7.4 23 +30 +43 жарко 1014.5 997.9
12 14.08 В 3 20 км ясно +32.0 +4.9 18 +30 +38 жарко 1013.2 996.6
15 14.08 В 3 20 км ясно +30.2 +1.3 16 +28 +28 жарко 1012.7 996.0 +32.4
18 14.08 В 2 20 км ясно +22.6 +1.8 25 +22 +22 комфорт 1013.8 996.7
21 14.08 В 2 20 км ясно +19.8 +7.2 44 +21 +21 комфорт 1013.6 996.3
00 15.08 штиль 0 20 км ясно +14.7 +9.1 69 +14 +14 1013.4 995.9
03 15.08 штиль 0 20 км ясно +14.8 +11.8 82 +15 +15 1013.2 995.7 +13.8
06 15.08 В 4 20 км ясно +25.5 +12.0 43 +27 +33 жарко 1012.4 995.5
09 15.08 В 4
{10}
20 км ясно +30.9 +12.0 31 +31 +42 жарко 1011.2 994.6
12 15.08 В 4
{11}
20 км ясно +33.7 +9.2 22 +32 +39 жарко 1009.2 992.8
15 15.08 В 4
{11}
20 км ясно +30.5 +9.3 27 +30 +30 жарко 1008.9 992.4 +33.9
18 15.08 В 2 20 км ясно +23.8 +7.6 35 +24 +24 комфорт 1010.2 993.3
21 15.08 В 1 20 км ясно +19.3 +10.3 56 +21 +21 комфорт 1010.4 993.2
00 16.08 В 1 20 км 10/0 2000 м
[Ac und]
+20.4 +16.2 77 +24 +24 комфорт 1009.7 992.6
03 16.08 В 1 20 км 10/10 300 м
[St]
+21.3 +18.5 84 +26 +26 душно 1009.7 992.7 +18.2
06 16.08 В 2 20 км 10/10 600 м
[Sc]
+23.2 +18.6 75 +29 +29 душно 1009.4 992.5
09 16.08 В 2 20 км 10/10 600 м
[Sc]
+26.4 +18.6 62 +31 +31 душно 1008.2 991.4
12 16.08 В 2 20 км 5/5 600 м
[Sc]
+29.9 +19.5 54 +36 +41 очень
душно
1006.0 989.5
15 16.08 штиль 0 20 км 3/3 600 м
[Sc]
+30.5 +19.5 52 +36 +37 очень
душно
1005.1 988.7 +30.7
18 16.08 В 3 20 км 8/0 2000 м
[Ac trans]
+26.6 +16.8 55 +30 +30 душно 1006.0 989.4
21 16.08 В 1 20 км 9/5 600 м
[Sc Ac lent]
+24.0 +17.1 65 +28 +28 душно 1006.7 989.8
00 17.08 СВ 2 20 км 6/3 600 м
[Sc Ac lent]
+21.3 +17.0 76 +25 +25 комфорт 1006.7 989.7
03 17.08 В 1 20 км 10/10 300 м
[St]
+20.5 +17.0 80 +25 +25 комфорт 1006.7 989.7 +20.5
06 17.08 З 1 20 км 10/0 2000 м
[Ac und Cs]
+23.7 +17.9 70 +28 +33 душно 1008.6 991.7
09 17.08 СЗ 2 20 км {гроза} 8/3 600 м
[Cb cap Ac lent]
+28.8 +18.9 55 +34 +39 очень
душно
1008.4 991.8
12 17.08 С 2 20 км {гроза} 9/9 600 м
[Cb cap]
+31.2 +19.1 49 +37 +38 очень
душно
1007.9 991.4
15 17.08 С 3
{10}
10 км гроза, ливневой дождь 10/10 600 м
[Cb cap]
+23.3 +20.5 84 +31 +31 очень
душно
1008.2 991.3 +32.4 9
18 17.08 СЗ 1 20 км {гроза, ливн. осадки} 9/5 600 м
[Cb cap Ac trans]
+22.9 +20.9 89 +30 +30 очень
душно
1009.7 992.7
21 17.08 штиль 0 4000 м дымка 9/3 600 м
[Sc diur, vesp Ac trans]
+21.6 +21.1 97 +28 +28 очень
душно
1009.3 992.3
00 18.08 штиль 0 4000 м дымка 5/1 600 м
[Sc Ac trans]
+20.5 +20.2 98 +25 +25 комфорт 1008.8 991.8
03 18.08 З 1 2000 м дымка 5/0 2000 м
[Ac lent]
+19.9 +19.7 99 +24 +25 комфорт 1008.3 991.2 +19.6
06 18.08 В 2 20 км 3/3 300 м
[St]
+26.1 +21.0 74 +33 +39 очень
душно
1008.3 991.5
09 18.08 СЗ 2 20 км 4/4 600 м
[Cu med, cong]
+30.5 +20.7 56 +38 +47 очень
душно
1007.0 990.6
12 18.08 СЗ 2 20 км 3/3 600 м
[Cu med, cong]
+34.3 +16.5 35 +37 +44 очень
душно
1005.8 989.5
15 18.08 штиль 0 20 км 3/3 600 м
[Sc diur, vesp]
+33.8 +14.1 31 +35 +36 очень
жарко
1006.1 989.8 +34.9
18 18.08 ЮЗ 2 20 км 6/0 2000 м
[Ac trans]
+27.5 +20.0 64 +34 +34 очень
душно
1008.4 991.8
21 18.08 СЗ 2 20 км 8/4 600 м
[Sc Ac trans]
+26.0 +16.8 57 +30 +30 душно 1009.5 992.7

 

Местоположение метеостанции Зеленокумск (Ставропольский край, Россия): широта 44.43 долгота 43.88 высота над уровнем моря 148 м.

В архиве по умолчанию представлена погода в Зеленокумске за последнюю неделю. Архивные данные за месяц целиком и за предыдущие месяцы, начиная с января 2011 года, Вы можете получить, выбрав интересующий диапазон дат из раскрывающегося списка и нажав кнопку "Ввод!".


*Определитесь, кто Вы:
робот инопланетянин человек

Внимание! Время в таблицах - всемирное. Для получения местного времени необходимо прибавить поправку, которая равна 3 ч.

Смотрите также архив погоды в соседних городах и на ближайших метеорологических станциях:

Погода в Буденновске (Ставропольский край, Россия) (44 км)
Погода в Георгиевске (Ставропольский край, Россия) (48 км)
Погода в Минеральных Водах (Ставропольский край, Россия) (66 км)
Погода в Александровском (Ставропольский край, Россия) (77 км)
Погода в Прохладный (Кабардино-Балкария, Россия) (77 км)
Погода в Благодарном (Ставропольский край, Россия) (82 км)
Погода в Моздоке (Северная Осетия, Россия) (100 км)
Погода в Нальчике (Кабардино-Балкария, Россия) (102 км)
Погода в Рощино (Ставропольский край, Россия) (110 км)
Погода в Кисловодске (Ставропольский край, Россия) (110 км)

Пояснения к столбцам:

Ветер - указаны скорость ветра в м/с - средняя за 10 мин, порывы в срок и между сроками (в фигурных скобках) и направление, откуда дует ветер: С - северный, СВ - северо-восточный, В - восточный, ЮВ - юго-восточный, Ю - южный, ЮЗ - юго-западный, З - западный, СЗ - северо-западный.
Видимость - горизонтальная дальность видимости в метрах или километрах. При видимости от 1 до 10 км при отсутствии осадков обычно наблюдается дымка, при ухудшении видимости до 1 км и менее - туман. В сухую погоду видимость может ухудшаться дымом, пылью или мглою.
Явления - указаны атмосферные явления, наблюдавшиеся в срок или в последний час перед сроком; фигурными скобками обозначены явления, наблюдавшиеся между сроками (за 1-3 часа до срока); квадратными скобками обозначены град или гололедные отложения с указанием их диаметра в мм.
Облачность - указаны через наклонную черту общая и нижняя облачность в баллах и высота нижней границы облаков в метрах; квадратными скобками обозначены формы облаков: Ci - перистые, Cs - перисто-слоистые, Cc - перисто-кучевые, Ac - высококучевые, As - высокослоистые, Sc - слоисто-кучевые, Ns - слоисто-дождевые, Cu - кучевые, Cb - кучево-дождевые. Подробнее классификацию облаков см. в Атласе облаков (PDF).
T - Температура воздуха - температура, измеренная на высоте 2 м над землей.
Td - Температура точки росы - температура, при понижении до которой содержащийся в воздухе водяной пар достигнет насыщения.
f - Относительная влажность воздуха - влажноcть воздуха, измеренная на высоте 2 м над землей.
Te - Эффективная температура - температура, которую ощущает одетый по сезону человек в тени. Характеристика душности погоды. При расчете учитывается влияние влажности воздуха и скорости ветра на теплоощущения человека.
Tes - Эффективная температура на солнце - температура, которую ощущает человек, с поправкой на солнечный нагрев. Характеристика знойности погоды. Зависит от высоты солнца над горизонтом, облачности и скорости ветра. Ночью, в пасмурную погоду, а также при ветре 12 м/с и более поправка равна нулю.
P - Атмосферное давление - приведенное к уровню моря атмосферное давление.
Po - Атмосферное давление - измеренное на уровне метеостанции атмосферное давление.
Tmin - Минимальная температура - минимум температуры воздуха на высоте 2 м над землей.
Tmax - Максимальная температура - максимум температуры воздуха на высоте 2 м над землей.
R - Количество осадков - Количество выпавших осадков за период времени, мм. При наведении курсора мыши на число - период времени, за который выпало указанное количество осадков.
R24 - Количество осадков - Количество выпавших осадков за 24 часа, мм.
S - Снежный покров - Высота снежного покрова, см. При наведении курсора мыши на число - состояние снежного покрова и степень покрытия местности в баллах.